KF4IRC Weather Reports


time (UTC)temp
C
wind
direction
speed
KPH
gust
KPH
rain 1hr
cm
rain 24hr
cm
rain mn
cm
humidity
%
barometer
mb
20260506062038 22 311 0.0 0.0 0.00 0.00 0.00 68 1013.8
20260506060514 22 22 0.0 0.0 0.00 0.00 0.00 68 1014.0
20260506050528 21 189 0.0 0.0 0.00 0.00 0.00 69 1014.5
20260506045018 21 189 0.0 0.0 0.00 0.00 0.00 69 1014.6
20260506043516 21 191 0.0 0.0 0.00 0.00 0.00 69 1014.6
20260506042018 21 154 0.0 0.0 0.00 0.00 0.00 69 1014.7
20260506040514 21 154 0.0 0.0 0.00 0.00 0.00 69 1014.7
20260506035033 21 154 0.0 0.0 0.00 0.00 0.00 69 1014.9
20260506033520 22 154 0.0 0.0 0.00 0.00 0.00 70 1015.1
20260506032025 22 154 0.0 0.0 0.00 0.00 0.00 69 1015.1
20260506030535 22 152 0.0 0.0 0.00 0.00 0.00 69 1015.1
20260506025032 22 155 0.0 0.0 0.00 0.00 0.00 69 1015.0
20260506023550 22 155 0.0 0.0 0.00 0.00 0.00 70 1015.0
20260506022032 22 117 0.0 0.0 0.00 0.00 0.00 70 1014.6
20260506020519 22 119 0.0 0.0 0.00 0.00 0.00 70 1014.6
20260506015021 22 119 0.0 0.0 0.00 0.00 0.00 70 1014.6
20260506013540 22 30 0.0 0.0 0.00 0.00 0.00 70 1014.7
20260506012041 23 217 0.0 0.0 0.00 0.00 0.00 70 1014.7
20260506010521 23 128 0.0 0.0 0.00 0.00 0.00 70 1014.5
20260506005022 23 133 0.0 0.0 0.00 0.00 0.00 70 1014.5
20260506003517 23 131 1.6 0.0 0.00 0.00 0.00 70 1014.5
20260506002033 23 144 1.6 0.0 0.00 0.00 0.00 70 1014.3